Year,Month,Day,Hour,Minute,Value (Times are PST for insolation in W/m^2)
2020,10,04,00,00,0.00
2020,10,04,00,01,0.00
2020,10,04,00,02,0.00
2020,10,04,00,03,0.00
2020,10,04,00,04,0.00
2020,10,04,00,05,0.00
2020,10,04,00,06,0.00
2020,10,04,00,07,0.00
2020,10,04,00,08,0.00
2020,10,04,00,09,0.00
2020,10,04,00,10,0.00
2020,10,04,00,11,0.00
2020,10,04,00,12,0.00
2020,10,04,00,13,0.00
2020,10,04,00,14,0.00
2020,10,04,00,15,0.00
2020,10,04,00,16,0.00
2020,10,04,00,17,0.00
2020,10,04,00,18,0.00
2020,10,04,00,19,0.00
2020,10,04,00,20,0.00
2020,10,04,00,21,0.00
2020,10,04,00,22,0.00
2020,10,04,00,23,0.00
2020,10,04,00,24,0.00
2020,10,04,00,25,0.00
2020,10,04,00,26,0.00
2020,10,04,00,27,0.00
2020,10,04,00,28,0.00
2020,10,04,00,29,0.00
2020,10,04,00,30,0.00
2020,10,04,00,31,0.00
2020,10,04,00,32,0.00
2020,10,04,00,33,0.00
2020,10,04,00,34,0.00
2020,10,04,00,35,0.00
2020,10,04,00,36,0.00
2020,10,04,00,37,0.00
2020,10,04,00,38,0.00
2020,10,04,00,39,0.00
2020,10,04,00,40,0.00
2020,10,04,00,41,0.00
2020,10,04,00,42,0.00
2020,10,04,00,43,0.00
2020,10,04,00,44,0.00
2020,10,04,00,45,0.00
2020,10,04,00,46,0.00
2020,10,04,00,47,0.00
2020,10,04,00,48,0.00
2020,10,04,00,49,0.00
2020,10,04,00,50,0.00
2020,10,04,00,51,0.00
2020,10,04,00,52,0.00
2020,10,04,00,53,0.00
2020,10,04,00,54,0.00
2020,10,04,00,55,0.00
2020,10,04,00,56,0.00
2020,10,04,00,57,0.00
2020,10,04,00,58,0.00
2020,10,04,00,59,0.00
2020,10,04,01,00,0.00
2020,10,04,01,01,0.00
2020,10,04,01,02,0.00
2020,10,04,01,03,0.00
2020,10,04,01,04,0.00
2020,10,04,01,05,0.00
2020,10,04,01,06,0.00
2020,10,04,01,07,0.00
2020,10,04,01,08,0.00
2020,10,04,01,09,0.00
2020,10,04,01,10,0.00
2020,10,04,01,11,0.00
2020,10,04,01,12,0.00
2020,10,04,01,13,0.00
2020,10,04,01,14,0.00
2020,10,04,01,15,0.00
2020,10,04,01,16,0.00
2020,10,04,01,17,0.00
2020,10,04,01,18,0.00
2020,10,04,01,19,0.00
2020,10,04,01,20,0.00
2020,10,04,01,21,0.00
2020,10,04,01,22,0.00
2020,10,04,01,23,0.00
2020,10,04,01,24,0.00
2020,10,04,01,25,0.00
2020,10,04,01,26,0.00
2020,10,04,01,27,0.00
2020,10,04,01,28,0.00
2020,10,04,01,29,0.00
2020,10,04,01,30,0.00
2020,10,04,01,31,0.00
2020,10,04,01,32,0.00
2020,10,04,01,33,0.00
2020,10,04,01,34,0.00
2020,10,04,01,35,0.00
2020,10,04,01,36,0.00
2020,10,04,01,37,0.00
2020,10,04,01,38,0.00
2020,10,04,01,39,0.00
2020,10,04,01,40,0.00
2020,10,04,01,41,0.00
2020,10,04,01,42,0.00
2020,10,04,01,43,0.00
2020,10,04,01,44,0.00
2020,10,04,01,45,0.00
2020,10,04,01,46,0.00
2020,10,04,01,47,0.00
2020,10,04,01,48,0.00
2020,10,04,01,49,0.00
2020,10,04,01,50,0.00
2020,10,04,01,51,0.00
2020,10,04,01,52,0.00
2020,10,04,01,53,0.00
2020,10,04,01,54,0.00
2020,10,04,01,55,0.00
2020,10,04,01,56,0.00
2020,10,04,01,57,0.00
2020,10,04,01,58,0.00
2020,10,04,01,59,0.00
2020,10,04,02,00,0.00
2020,10,04,02,01,0.00
2020,10,04,02,02,0.00
2020,10,04,02,03,0.00
2020,10,04,02,04,0.00
2020,10,04,02,05,0.00
2020,10,04,02,06,0.00
2020,10,04,02,07,0.00
2020,10,04,02,08,0.00
2020,10,04,02,09,0.00
2020,10,04,02,10,0.00
2020,10,04,02,11,0.00
2020,10,04,02,12,0.00
2020,10,04,02,13,0.00
2020,10,04,02,14,0.00
2020,10,04,02,15,0.00
2020,10,04,02,16,0.00
2020,10,04,02,17,0.00
2020,10,04,02,18,0.00
2020,10,04,02,19,0.00
2020,10,04,02,20,0.00
2020,10,04,02,21,0.00
2020,10,04,02,22,0.00
2020,10,04,02,23,0.00
2020,10,04,02,24,0.00
2020,10,04,02,25,0.00
2020,10,04,02,26,0.00
2020,10,04,02,27,0.00
2020,10,04,02,28,0.00
2020,10,04,02,29,0.00
2020,10,04,02,30,0.00
2020,10,04,02,31,0.00
2020,10,04,02,32,0.00
2020,10,04,02,33,0.00
2020,10,04,02,34,0.00
2020,10,04,02,35,0.00
2020,10,04,02,36,0.00
2020,10,04,02,37,0.00
2020,10,04,02,38,0.00
2020,10,04,02,39,0.00
2020,10,04,02,40,0.00
2020,10,04,02,41,0.00
2020,10,04,02,42,0.00
2020,10,04,02,43,0.00
2020,10,04,02,44,0.00
2020,10,04,02,45,0.00
2020,10,04,02,46,0.00
2020,10,04,02,47,0.00
2020,10,04,02,48,0.00
2020,10,04,02,49,0.00
2020,10,04,02,50,0.00
2020,10,04,02,51,0.00
2020,10,04,02,52,0.00
2020,10,04,02,53,0.00
2020,10,04,02,54,0.00
2020,10,04,02,55,0.00
2020,10,04,02,56,0.00
2020,10,04,02,57,0.00
2020,10,04,02,58,0.00
2020,10,04,02,59,0.00
2020,10,04,03,00,0.00
2020,10,04,03,01,0.00
2020,10,04,03,02,0.00
2020,10,04,03,03,0.00
2020,10,04,03,04,0.00
2020,10,04,03,05,0.00
2020,10,04,03,06,0.00
2020,10,04,03,07,0.00
2020,10,04,03,08,0.00
2020,10,04,03,09,0.00
2020,10,04,03,10,0.00
2020,10,04,03,11,0.00
2020,10,04,03,12,0.00
2020,10,04,03,13,0.00
2020,10,04,03,14,0.00
2020,10,04,03,15,0.00
2020,10,04,03,16,0.00
2020,10,04,03,17,0.00
2020,10,04,03,18,0.00
2020,10,04,03,19,0.00
2020,10,04,03,20,0.00
2020,10,04,03,21,0.00
2020,10,04,03,22,0.00
2020,10,04,03,23,0.00
2020,10,04,03,24,0.00
2020,10,04,03,25,0.00
2020,10,04,03,26,0.00
2020,10,04,03,27,0.00
2020,10,04,03,28,0.00
2020,10,04,03,29,0.00
2020,10,04,03,30,0.00
2020,10,04,03,31,0.00
2020,10,04,03,32,0.00
2020,10,04,03,33,0.00
2020,10,04,03,34,0.00
2020,10,04,03,35,0.00
2020,10,04,03,36,0.00
2020,10,04,03,37,0.00
2020,10,04,03,38,0.00
2020,10,04,03,39,0.00
2020,10,04,03,40,0.00
2020,10,04,03,41,0.00
2020,10,04,03,42,0.00
2020,10,04,03,43,0.00
2020,10,04,03,44,0.00
2020,10,04,03,45,0.00
2020,10,04,03,46,0.00
2020,10,04,03,47,0.00
2020,10,04,03,48,0.00
2020,10,04,03,49,0.00
2020,10,04,03,50,0.00
2020,10,04,03,51,0.00
2020,10,04,03,52,0.00
2020,10,04,03,53,0.00
2020,10,04,03,54,0.00
2020,10,04,03,55,0.00
2020,10,04,03,56,0.00
2020,10,04,03,57,0.00
2020,10,04,03,58,0.00
2020,10,04,03,59,0.00
2020,10,04,04,00,0.00
2020,10,04,04,01,0.00
2020,10,04,04,02,0.00
2020,10,04,04,03,0.00
2020,10,04,04,04,0.00
2020,10,04,04,05,0.00
2020,10,04,04,06,0.00
2020,10,04,04,07,0.00
2020,10,04,04,08,0.00
2020,10,04,04,09,0.00
2020,10,04,04,10,0.00
2020,10,04,04,11,0.00
2020,10,04,04,12,0.00
2020,10,04,04,13,0.00
2020,10,04,04,14,0.00
2020,10,04,04,15,0.00
2020,10,04,04,16,0.00
2020,10,04,04,17,0.00
2020,10,04,04,18,0.00
2020,10,04,04,19,0.00
2020,10,04,04,20,0.00
2020,10,04,04,21,0.00
2020,10,04,04,22,0.00
2020,10,04,04,23,0.00
2020,10,04,04,24,0.00
2020,10,04,04,25,0.00
2020,10,04,04,26,0.00
2020,10,04,04,27,0.00
2020,10,04,04,28,0.00
2020,10,04,04,29,0.00
2020,10,04,04,30,0.00
2020,10,04,04,31,0.00
2020,10,04,04,32,0.00
2020,10,04,04,33,0.00
2020,10,04,04,34,0.00
2020,10,04,04,35,0.00
2020,10,04,04,36,0.00
2020,10,04,04,37,0.00
2020,10,04,04,38,0.00
2020,10,04,04,39,0.00
2020,10,04,04,40,0.00
2020,10,04,04,41,0.00
2020,10,04,04,42,0.00
2020,10,04,04,43,0.00
2020,10,04,04,44,0.00
2020,10,04,04,45,0.00
2020,10,04,04,46,0.00
2020,10,04,04,47,0.00
2020,10,04,04,48,0.00
2020,10,04,04,49,0.00
2020,10,04,04,50,0.00
2020,10,04,04,51,0.00
2020,10,04,04,52,0.00
2020,10,04,04,53,0.00
2020,10,04,04,54,0.00
2020,10,04,04,55,0.00
2020,10,04,04,56,0.00
2020,10,04,04,57,0.00
2020,10,04,04,58,0.00
2020,10,04,04,59,0.00
2020,10,04,05,00,0.00
2020,10,04,05,01,0.00
2020,10,04,05,02,0.00
2020,10,04,05,03,0.00
2020,10,04,05,04,0.00
2020,10,04,05,05,0.00
2020,10,04,05,06,0.00
2020,10,04,05,07,0.00
2020,10,04,05,08,0.00
2020,10,04,05,09,0.00
2020,10,04,05,10,0.00
2020,10,04,05,11,0.00
2020,10,04,05,12,0.00
2020,10,04,05,13,0.00
2020,10,04,05,14,0.00
2020,10,04,05,15,0.00
2020,10,04,05,16,0.00
2020,10,04,05,17,0.00
2020,10,04,05,18,0.00
2020,10,04,05,19,0.00
2020,10,04,05,20,0.00
2020,10,04,05,21,0.00
2020,10,04,05,22,0.00
2020,10,04,05,23,0.00
2020,10,04,05,24,0.00
2020,10,04,05,25,0.00
2020,10,04,05,26,0.00
2020,10,04,05,27,0.00
2020,10,04,05,28,0.00
2020,10,04,05,29,0.00
2020,10,04,05,30,0.00
2020,10,04,05,31,0.00
2020,10,04,05,32,0.00
2020,10,04,05,33,0.00
2020,10,04,05,34,0.00
2020,10,04,05,35,0.00
2020,10,04,05,36,0.00
2020,10,04,05,37,0.00
2020,10,04,05,38,0.00
2020,10,04,05,39,0.00
2020,10,04,05,40,0.00
2020,10,04,05,41,0.00
2020,10,04,05,42,0.00
2020,10,04,05,43,0.00
2020,10,04,05,44,0.00
2020,10,04,05,45,0.00
2020,10,04,05,46,0.00
2020,10,04,05,47,0.00
2020,10,04,05,48,0.00
2020,10,04,05,49,0.00
2020,10,04,05,50,0.00
2020,10,04,05,51,0.00
2020,10,04,05,52,0.00
2020,10,04,05,53,0.00
2020,10,04,05,54,0.00
2020,10,04,05,55,0.00
2020,10,04,05,56,0.00
2020,10,04,05,57,0.00
2020,10,04,05,58,0.00
2020,10,04,05,59,0.00
2020,10,04,06,00,0.00
2020,10,04,06,01,0.00
2020,10,04,06,02,0.00
2020,10,04,06,03,0.00
2020,10,04,06,04,0.00
2020,10,04,06,05,0.00
2020,10,04,06,06,0.00
2020,10,04,06,07,0.00
2020,10,04,06,08,0.00
2020,10,04,06,09,0.00
2020,10,04,06,10,0.00
2020,10,04,06,11,0.00
2020,10,04,06,12,0.00
2020,10,04,06,13,0.00
2020,10,04,06,14,0.00
2020,10,04,06,15,0.00
2020,10,04,06,16,0.00
2020,10,04,06,17,0.00
2020,10,04,06,18,0.00
2020,10,04,06,19,0.00
2020,10,04,06,20,0.00
2020,10,04,06,21,0.00
2020,10,04,06,22,0.00
2020,10,04,06,23,0.00
2020,10,04,06,24,0.00
2020,10,04,06,25,0.00
2020,10,04,06,26,0.00
2020,10,04,06,27,0.00
2020,10,04,06,28,0.00
2020,10,04,06,29,0.00
2020,10,04,06,30,0.00
2020,10,04,06,31,0.00
2020,10,04,06,32,0.00
2020,10,04,06,33,0.00
2020,10,04,06,34,0.00
2020,10,04,06,35,0.00
2020,10,04,06,36,0.00
2020,10,04,06,37,0.00
2020,10,04,06,38,0.00
2020,10,04,06,39,0.00
2020,10,04,06,40,0.00
2020,10,04,06,41,0.00
2020,10,04,06,42,0.00
2020,10,04,06,43,0.00
2020,10,04,06,44,0.00
2020,10,04,06,45,0.00
2020,10,04,06,46,0.00
2020,10,04,06,47,0.00
2020,10,04,06,48,0.00
2020,10,04,06,49,0.00
2020,10,04,06,50,0.00
2020,10,04,06,51,0.00
2020,10,04,06,52,0.00
2020,10,04,06,53,0.00
2020,10,04,06,54,0.00
2020,10,04,06,55,0.00
2020,10,04,06,56,0.00
2020,10,04,06,57,0.00
2020,10,04,06,58,0.00
2020,10,04,06,59,0.00
2020,10,04,07,00,0.00
2020,10,04,07,01,0.00
2020,10,04,07,02,0.00
2020,10,04,07,03,0.00
2020,10,04,07,04,0.00
2020,10,04,07,05,0.00
2020,10,04,07,06,0.00
2020,10,04,07,07,0.00
2020,10,04,07,08,0.00
2020,10,04,07,09,0.00
2020,10,04,07,10,0.00
2020,10,04,07,11,0.00
2020,10,04,07,12,0.00
2020,10,04,07,13,0.00
2020,10,04,07,14,0.00
2020,10,04,07,15,0.00
2020,10,04,07,16,0.00
2020,10,04,07,17,0.00
2020,10,04,07,18,0.00
2020,10,04,07,19,0.00
2020,10,04,07,20,0.00
2020,10,04,07,21,0.00
2020,10,04,07,22,0.00
2020,10,04,07,23,0.00
2020,10,04,07,24,0.00
2020,10,04,07,25,0.00
2020,10,04,07,26,0.00
2020,10,04,07,27,0.00
2020,10,04,07,28,0.00
2020,10,04,07,29,0.00
2020,10,04,07,30,0.00
2020,10,04,07,31,0.00
2020,10,04,07,32,0.00
2020,10,04,07,33,0.00
2020,10,04,07,34,0.00
2020,10,04,07,35,0.00
2020,10,04,07,36,0.00
2020,10,04,07,37,0.00
2020,10,04,07,38,0.00
2020,10,04,07,39,0.00
2020,10,04,07,40,0.00
2020,10,04,07,41,0.00
2020,10,04,07,42,0.00
2020,10,04,07,43,0.00
2020,10,04,07,44,0.00
2020,10,04,07,45,0.00
2020,10,04,07,46,0.00
2020,10,04,07,47,0.00
2020,10,04,07,48,0.00
2020,10,04,07,49,0.00
2020,10,04,07,50,0.00
2020,10,04,07,51,0.00
2020,10,04,07,52,0.00
2020,10,04,07,53,0.00
2020,10,04,07,54,0.00
2020,10,04,07,55,0.00
2020,10,04,07,56,0.00
2020,10,04,07,57,0.00
2020,10,04,07,58,0.00
2020,10,04,07,59,0.00
2020,10,04,08,00,0.00
2020,10,04,08,01,0.00
2020,10,04,08,02,0.00
2020,10,04,08,03,0.00
2020,10,04,08,04,0.00
2020,10,04,08,05,0.00
2020,10,04,08,06,0.00
2020,10,04,08,07,0.00
2020,10,04,08,08,0.00
2020,10,04,08,09,0.00
2020,10,04,08,10,1.00
2020,10,04,08,11,5.00
2020,10,04,08,12,5.00
2020,10,04,08,13,5.00
2020,10,04,08,14,6.40
2020,10,04,08,15,8.70
2020,10,04,08,16,9.00
2020,10,04,08,17,9.00
2020,10,04,08,18,9.00
2020,10,04,08,19,9.00
2020,10,04,08,20,9.00
2020,10,04,08,21,9.00
2020,10,04,08,22,10.70
2020,10,04,08,23,11.00
2020,10,04,08,24,11.20
2020,10,04,08,25,12.00
2020,10,04,08,26,12.00
2020,10,04,08,27,12.00
2020,10,04,08,28,12.00
2020,10,04,08,29,12.00
2020,10,04,08,30,12.00
2020,10,04,08,31,12.00
2020,10,04,08,32,12.00
2020,10,04,08,33,12.00
2020,10,04,08,34,12.00
2020,10,04,08,35,12.00
2020,10,04,08,36,12.00
2020,10,04,08,37,11.90
2020,10,04,08,38,11.00
2020,10,04,08,39,11.00
2020,10,04,08,40,11.00
2020,10,04,08,41,11.00
2020,10,04,08,42,11.00
2020,10,04,08,43,11.00
2020,10,04,08,44,12.00
2020,10,04,08,45,12.00
2020,10,04,08,46,12.70
2020,10,04,08,47,14.90
2020,10,04,08,48,16.00
2020,10,04,08,49,16.00
2020,10,04,08,50,18.60
2020,10,04,08,51,19.00
2020,10,04,08,52,19.00
2020,10,04,08,53,19.00
2020,10,04,08,54,18.60
2020,10,04,08,55,18.60
2020,10,04,08,56,20.40
2020,10,04,08,57,21.00
2020,10,04,08,58,22.90
2020,10,04,08,59,23.00
2020,10,04,09,00,23.00
2020,10,04,09,01,23.00
2020,10,04,09,02,23.00
2020,10,04,09,03,23.00
2020,10,04,09,04,23.00
2020,10,04,09,05,21.00
2020,10,04,09,06,21.00
2020,10,04,09,07,21.60
2020,10,04,09,08,23.90
2020,10,04,09,09,25.00
2020,10,04,09,10,25.70
2020,10,04,09,11,27.70
2020,10,04,09,12,28.00
2020,10,04,09,13,28.00
2020,10,04,09,14,28.70
2020,10,04,09,15,31.00
2020,10,04,09,16,32.60
2020,10,04,09,17,33.00
2020,10,04,09,18,33.00
2020,10,04,09,19,32.90
2020,10,04,09,20,31.60
2020,10,04,09,21,30.00
2020,10,04,09,22,30.00
2020,10,04,09,23,30.00
2020,10,04,09,24,30.00
2020,10,04,09,25,28.30
2020,10,04,09,26,28.00
2020,10,04,09,27,28.00
2020,10,04,09,28,29.40
2020,10,04,09,29,32.40
2020,10,04,09,30,33.00
2020,10,04,09,31,35.90
2020,10,04,09,32,37.00
2020,10,04,09,33,37.00
2020,10,04,09,34,36.20
2020,10,04,09,35,33.00
2020,10,04,09,36,33.00
2020,10,04,09,37,33.00
2020,10,04,09,38,33.00
2020,10,04,09,39,34.70
2020,10,04,09,40,36.90
2020,10,04,09,41,37.00
2020,10,04,09,42,37.00
2020,10,04,09,43,37.00
2020,10,04,09,44,37.00
2020,10,04,09,45,37.00
2020,10,04,09,46,38.70
2020,10,04,09,47,40.20
2020,10,04,09,48,42.00
2020,10,04,09,49,43.40
2020,10,04,09,50,46.40
2020,10,04,09,51,47.00
2020,10,04,09,52,46.30
2020,10,04,09,53,46.00
2020,10,04,09,54,46.00
2020,10,04,09,55,46.00
2020,10,04,09,56,46.00
2020,10,04,09,57,46.00
2020,10,04,09,58,46.00
2020,10,04,09,59,46.00
2020,10,04,10,00,46.00
2020,10,04,10,01,46.00
2020,10,04,10,02,46.00
2020,10,04,10,03,46.00
2020,10,04,10,04,46.00
2020,10,04,10,05,46.60
2020,10,04,10,06,48.40
2020,10,04,10,07,52.40
2020,10,04,10,08,54.00
2020,10,04,10,09,64.00
2020,10,04,10,10,65.60
2020,10,04,10,11,62.50
2020,10,04,10,12,62.00
2020,10,04,10,13,62.00
2020,10,04,10,14,60.30
2020,10,04,10,15,60.00
2020,10,04,10,16,60.40
2020,10,04,10,17,62.00
2020,10,04,10,18,62.00
2020,10,04,10,19,62.00
2020,10,04,10,20,77.20
2020,10,04,10,21,83.90
2020,10,04,10,22,84.00
2020,10,04,10,23,84.90
2020,10,04,10,24,86.60
2020,10,04,10,25,82.60
2020,10,04,10,26,78.10
2020,10,04,10,27,74.60
2020,10,04,10,28,75.70
2020,10,04,10,29,77.40
2020,10,04,10,30,79.50
2020,10,04,10,31,74.70
2020,10,04,10,32,79.40
2020,10,04,10,33,83.60
2020,10,04,10,34,84.00
2020,10,04,10,35,83.20
2020,10,04,10,36,81.90
2020,10,04,10,37,71.60
2020,10,04,10,38,70.00
2020,10,04,10,39,70.00
2020,10,04,10,40,70.00
2020,10,04,10,41,69.20
2020,10,04,10,42,65.70
2020,10,04,10,43,60.00
2020,10,04,10,44,58.80
2020,10,04,10,45,63.70
2020,10,04,10,46,69.40
2020,10,04,10,47,72.00
2020,10,04,10,48,80.00
2020,10,04,10,49,89.90
2020,10,04,10,50,101.40
2020,10,04,10,51,97.80
2020,10,04,10,52,91.00
2020,10,04,10,53,79.40
2020,10,04,10,54,70.10
2020,10,04,10,55,73.50
2020,10,04,10,56,68.00
2020,10,04,10,57,66.50
2020,10,04,10,58,59.20
2020,10,04,10,59,56.00
2020,10,04,11,00,67.20
2020,10,04,11,01,86.30
2020,10,04,11,02,90.00
2020,10,04,11,03,90.00
2020,10,04,11,04,91.20
2020,10,04,11,05,109.30
2020,10,04,11,06,118.00
2020,10,04,11,07,118.00
2020,10,04,11,08,130.30
2020,10,04,11,09,136.10
2020,10,04,11,10,138.40
2020,10,04,11,11,141.10
2020,10,04,11,12,130.10
2020,10,04,11,13,113.00
2020,10,04,11,14,100.90
2020,10,04,11,15,94.70
2020,10,04,11,16,89.40
2020,10,04,11,17,84.70
2020,10,04,11,18,84.10
2020,10,04,11,19,86.40
2020,10,04,11,20,88.00
2020,10,04,11,21,89.00
2020,10,04,11,22,90.00
2020,10,04,11,23,88.60
2020,10,04,11,24,84.60
2020,10,04,11,25,83.00
2020,10,04,11,26,83.00
2020,10,04,11,27,83.00
2020,10,04,11,28,84.50
2020,10,04,11,29,87.10
2020,10,04,11,30,88.00
2020,10,04,11,31,88.00
2020,10,04,11,32,88.20
2020,10,04,11,33,90.20
2020,10,04,11,34,91.60
2020,10,04,11,35,93.00
2020,10,04,11,36,94.20
2020,10,04,11,37,95.00
2020,10,04,11,38,99.30
2020,10,04,11,39,100.20
2020,10,04,11,40,102.50
2020,10,04,11,41,104.00
2020,10,04,11,42,104.00
2020,10,04,11,43,104.00
2020,10,04,11,44,104.00
2020,10,04,11,45,104.80
2020,10,04,11,46,106.90
2020,10,04,11,47,108.90
2020,10,04,11,48,117.70
2020,10,04,11,49,124.40
2020,10,04,11,50,130.40
2020,10,04,11,51,132.00
2020,10,04,11,52,132.00
2020,10,04,11,53,113.70
2020,10,04,11,54,113.20
2020,10,04,11,55,114.00
2020,10,04,11,56,115.00
2020,10,04,11,57,114.80
2020,10,04,11,58,113.30
2020,10,04,11,59,109.60
2020,10,04,12,00,104.80
2020,10,04,12,01,101.60
2020,10,04,12,02,99.30
2020,10,04,12,03,98.00
2020,10,04,12,04,99.20
2020,10,04,12,05,100.00
2020,10,04,12,06,106.00
2020,10,04,12,07,111.20
2020,10,04,12,08,114.40
2020,10,04,12,09,116.70
2020,10,04,12,10,119.00
2020,10,04,12,11,120.00
2020,10,04,12,12,114.80
2020,10,04,12,13,106.40
2020,10,04,12,14,99.70
2020,10,04,12,15,94.50
2020,10,04,12,16,92.30
2020,10,04,12,17,91.00
2020,10,04,12,18,92.20
2020,10,04,12,19,94.40
2020,10,04,12,20,97.50
2020,10,04,12,21,99.90
2020,10,04,12,22,100.00
2020,10,04,12,23,101.80
2020,10,04,12,24,105.00
2020,10,04,12,25,104.40
2020,10,04,12,26,104.00
2020,10,04,12,27,100.60
2020,10,04,12,28,102.30
2020,10,04,12,29,105.50
2020,10,04,12,30,107.70
2020,10,04,12,31,109.00
2020,10,04,12,32,118.40
2020,10,04,12,33,125.00
2020,10,04,12,34,158.10
2020,10,04,12,35,191.10
2020,10,04,12,36,192.00
2020,10,04,12,37,210.60
2020,10,04,12,38,248.40
2020,10,04,12,39,249.10
2020,10,04,12,40,239.80
2020,10,04,12,41,227.10
2020,10,04,12,42,212.30
2020,10,04,12,43,199.60
2020,10,04,12,44,189.50
2020,10,04,12,45,183.10
2020,10,04,12,46,182.20
2020,10,04,12,47,186.80
2020,10,04,12,48,192.10
2020,10,04,12,49,198.60
2020,10,04,12,50,197.80
2020,10,04,12,51,190.80
2020,10,04,12,52,182.40
2020,10,04,12,53,174.50
2020,10,04,12,54,171.30
2020,10,04,12,55,175.30
2020,10,04,12,56,181.40
2020,10,04,12,57,186.40
2020,10,04,12,58,188.00
2020,10,04,12,59,186.60
2020,10,04,13,00,181.50
2020,10,04,13,01,175.40
2020,10,04,13,02,168.00
2020,10,04,13,03,161.70
2020,10,04,13,04,153.80
2020,10,04,13,05,148.00
2020,10,04,13,06,146.00
2020,10,04,13,07,139.30
2020,10,04,13,08,134.30
2020,10,04,13,09,134.80
2020,10,04,13,10,134.00
2020,10,04,13,11,134.00
2020,10,04,13,12,134.00
2020,10,04,13,13,133.00
2020,10,04,13,14,132.00
2020,10,04,13,15,128.40
2020,10,04,13,16,127.00
2020,10,04,13,17,126.40
2020,10,04,13,18,121.50
2020,10,04,13,19,124.80
2020,10,04,13,20,128.00
2020,10,04,13,21,128.00
2020,10,04,13,22,127.30
2020,10,04,13,23,127.80
2020,10,04,13,24,128.70
2020,10,04,13,25,136.70
2020,10,04,13,26,144.40
2020,10,04,13,27,153.20
2020,10,04,13,28,158.00
2020,10,04,13,29,176.10
2020,10,04,13,30,187.30
2020,10,04,13,31,192.70
2020,10,04,13,32,191.50
2020,10,04,13,33,190.70
2020,10,04,13,34,192.00
2020,10,04,13,35,192.60
2020,10,04,13,36,195.90
2020,10,04,13,37,197.00
2020,10,04,13,38,194.90
2020,10,04,13,39,193.00
2020,10,04,13,40,193.00
2020,10,04,13,41,197.90
2020,10,04,13,42,209.30
2020,10,04,13,43,213.70
2020,10,04,13,44,214.00
2020,10,04,13,45,206.00
2020,10,04,13,46,200.80
2020,10,04,13,47,182.70
2020,10,04,13,48,191.30
2020,10,04,13,49,194.60
2020,10,04,13,50,180.90
2020,10,04,13,51,176.00
2020,10,04,13,52,171.20
2020,10,04,13,53,192.70
2020,10,04,13,54,213.10
2020,10,04,13,55,221.00
2020,10,04,13,56,236.80
2020,10,04,13,57,255.20
2020,10,04,13,58,265.70
2020,10,04,13,59,275.10
2020,10,04,14,00,287.00
2020,10,04,14,01,287.00
2020,10,04,14,02,287.00
2020,10,04,14,03,317.40
2020,10,04,14,04,336.00
2020,10,04,14,05,336.00
2020,10,04,14,06,335.50
2020,10,04,14,07,328.60
2020,10,04,14,08,333.60
2020,10,04,14,09,346.00
2020,10,04,14,10,346.00
2020,10,04,14,11,346.00
2020,10,04,14,12,346.00
2020,10,04,14,13,346.50
2020,10,04,14,14,353.00
2020,10,04,14,15,353.00
2020,10,04,14,16,320.20
2020,10,04,14,17,289.20
2020,10,04,14,18,292.00
2020,10,04,14,19,292.00
2020,10,04,14,20,343.00
2020,10,04,14,21,301.00
2020,10,04,14,22,301.00
2020,10,04,14,23,347.20
2020,10,04,14,24,378.20
2020,10,04,14,25,335.00
2020,10,04,14,26,290.20
2020,10,04,14,27,284.70
2020,10,04,14,28,299.00
2020,10,04,14,29,299.00
2020,10,04,14,30,299.00
2020,10,04,14,31,299.00
2020,10,04,14,32,299.00
2020,10,04,14,33,611.10
2020,10,04,14,34,574.60
2020,10,04,14,35,541.00
2020,10,04,14,36,541.00
2020,10,04,14,37,583.70
2020,10,04,14,38,634.10
2020,10,04,14,39,635.00
2020,10,04,14,40,635.00
2020,10,04,14,41,635.00
2020,10,04,14,42,564.00
2020,10,04,14,43,283.40
2020,10,04,14,44,289.20
2020,10,04,14,45,313.00
2020,10,04,14,46,313.00
2020,10,04,14,47,313.00
2020,10,04,14,48,265.70
2020,10,04,14,49,263.00
2020,10,04,14,50,260.00
2020,10,04,14,51,240.50
2020,10,04,14,52,213.60
2020,10,04,14,53,209.00
2020,10,04,14,54,209.00
2020,10,04,14,55,426.20
2020,10,04,14,56,465.70
2020,10,04,14,57,587.00
2020,10,04,14,58,409.00
2020,10,04,14,59,180.60
2020,10,04,15,00,161.10
2020,10,04,15,01,147.70
2020,10,04,15,02,144.40
2020,10,04,15,03,157.10
2020,10,04,15,04,185.80
2020,10,04,15,05,186.60
2020,10,04,15,06,190.90
2020,10,04,15,07,185.00
2020,10,04,15,08,332.40
2020,10,04,15,09,357.00
2020,10,04,15,10,312.50
2020,10,04,15,11,142.00
2020,10,04,15,12,284.10
2020,10,04,15,13,446.20
2020,10,04,15,14,443.60
2020,10,04,15,15,444.70
2020,10,04,15,16,442.30
2020,10,04,15,17,435.00
2020,10,04,15,18,430.30
2020,10,04,15,19,424.60
2020,10,04,15,20,422.00
2020,10,04,15,21,422.00
2020,10,04,15,22,418.60
2020,10,04,15,23,418.00
2020,10,04,15,24,418.00
2020,10,04,15,25,342.50
2020,10,04,15,26,181.20
2020,10,04,15,27,173.10
2020,10,04,15,28,169.00
2020,10,04,15,29,169.00
2020,10,04,15,30,229.80
2020,10,04,15,31,232.00
2020,10,04,15,32,232.00
2020,10,04,15,33,319.40
2020,10,04,15,34,413.00
2020,10,04,15,35,407.80
2020,10,04,15,36,377.60
2020,10,04,15,37,401.00
2020,10,04,15,38,401.00
2020,10,04,15,39,379.80
2020,10,04,15,40,318.50
2020,10,04,15,41,344.60
2020,10,04,15,42,387.00
2020,10,04,15,43,387.00
2020,10,04,15,44,387.00
2020,10,04,15,45,328.80
2020,10,04,15,46,146.00
2020,10,04,15,47,146.00
2020,10,04,15,48,130.20
2020,10,04,15,49,120.00
2020,10,04,15,50,122.60
2020,10,04,15,51,123.00
2020,10,04,15,52,123.90
2020,10,04,15,53,128.00
2020,10,04,15,54,130.00
2020,10,04,15,55,155.50
2020,10,04,15,56,202.00
2020,10,04,15,57,175.10
2020,10,04,15,58,185.80
2020,10,04,15,59,243.70
2020,10,04,16,00,196.30
2020,10,04,16,01,204.80
2020,10,04,16,02,202.50
2020,10,04,16,03,206.80
2020,10,04,16,04,208.00
2020,10,04,16,05,207.00
2020,10,04,16,06,215.90
2020,10,04,16,07,260.40
2020,10,04,16,08,249.40
2020,10,04,16,09,206.00
2020,10,04,16,10,203.00
2020,10,04,16,11,197.70
2020,10,04,16,12,199.80
2020,10,04,16,13,202.70
2020,10,04,16,14,213.00
2020,10,04,16,15,212.10
2020,10,04,16,16,211.00
2020,10,04,16,17,229.80
2020,10,04,16,18,290.40
2020,10,04,16,19,299.00
2020,10,04,16,20,269.30
2020,10,04,16,21,175.30
2020,10,04,16,22,173.10
2020,10,04,16,23,171.40
2020,10,04,16,24,176.00
2020,10,04,16,25,182.30
2020,10,04,16,26,206.00
2020,10,04,16,27,206.00
2020,10,04,16,28,204.70
2020,10,04,16,29,202.00
2020,10,04,16,30,202.00
2020,10,04,16,31,221.30
2020,10,04,16,32,229.00
2020,10,04,16,33,229.00
2020,10,04,16,34,229.00
2020,10,04,16,35,206.20
2020,10,04,16,36,136.00
2020,10,04,16,37,97.30
2020,10,04,16,38,78.70
2020,10,04,16,39,69.70
2020,10,04,16,40,76.40
2020,10,04,16,41,74.00
2020,10,04,16,42,130.20
2020,10,04,16,43,243.00
2020,10,04,16,44,247.70
2020,10,04,16,45,246.00
2020,10,04,16,46,244.30
2020,10,04,16,47,166.50
2020,10,04,16,48,97.00
2020,10,04,16,49,97.00
2020,10,04,16,50,97.00
2020,10,04,16,51,97.00
2020,10,04,16,52,97.00
2020,10,04,16,53,87.50
2020,10,04,16,54,85.80
2020,10,04,16,55,96.20
2020,10,04,16,56,129.30
2020,10,04,16,57,107.00
2020,10,04,16,58,131.90
2020,10,04,16,59,148.00
2020,10,04,17,00,204.30
2020,10,04,17,01,212.80
2020,10,04,17,02,169.30
2020,10,04,17,03,163.00
2020,10,04,17,04,163.00
2020,10,04,17,05,119.30
2020,10,04,17,06,110.60
2020,10,04,17,07,100.90
2020,10,04,17,08,98.00
2020,10,04,17,09,130.80
2020,10,04,17,10,228.70
2020,10,04,17,11,220.00
2020,10,04,17,12,157.90
2020,10,04,17,13,126.10
2020,10,04,17,14,121.80
2020,10,04,17,15,111.90
2020,10,04,17,16,112.10
2020,10,04,17,17,98.00
2020,10,04,17,18,93.50
2020,10,04,17,19,85.70
2020,10,04,17,20,78.80
2020,10,04,17,21,74.40
2020,10,04,17,22,76.40
2020,10,04,17,23,81.00
2020,10,04,17,24,75.50
2020,10,04,17,25,64.00
2020,10,04,17,26,63.00
2020,10,04,17,27,62.30